| time (UTC) | temp C | wind direction | speed KPH | gust KPH | rain 1hr cm | rain 24hr cm | rain mn cm | humidity % | barometer mb |
| 20260505060219 | 5 | 277 | 27.4 | 51.5 | 0.03 | 0.05 | 0.03 | 98 | 1010.6 |
| 20260505055224 | 5 | 269 | 35.4 | 46.7 | 0.03 | 0.05 | 0.03 | 98 | 1010.8 |
| 20260505054728 | 5 | 268 | 30.6 | 45.1 | 0.03 | 0.05 | 0.03 | 98 | 1011.0 |
| 20260505054231 | 5 | 261 | 33.8 | 51.5 | 0.03 | 0.05 | 0.03 | 98 | 1010.7 |
| 20260505053237 | 5 | 263 | 29.0 | 51.5 | 0.03 | 0.05 | 0.03 | 98 | 1011.0 |
| 20260505052740 | 5 | 259 | 35.4 | 51.5 | 0.03 | 0.05 | 0.03 | 98 | 1010.9 |
| 20260505052243 | 5 | 248 | 27.4 | 56.3 | 0.00 | 0.03 | 0.00 | 97 | 1011.0 |
| 20260505051746 | 5 | 251 | 32.2 | 56.3 | 0.00 | 0.03 | 0.00 | 97 | 1011.0 |
| 20260505051248 | 5 | 257 | 25.7 | 49.9 | 0.00 | 0.03 | 0.00 | 97 | 1011.1 |
| 20260505050752 | 5 | 266 | 20.9 | 49.9 | 0.00 | 0.03 | 0.00 | 97 | 1011.2 |
| 20260505041324 | 5 | 258 | 20.9 | 38.6 | 0.00 | 0.03 | 0.00 | 98 | 1011.3 |
| 20260505040827 | 5 | 271 | 16.1 | 40.2 | 0.00 | 0.03 | 0.00 | 98 | 1011.1 |
| 20260505040331 | 5 | 251 | 27.4 | 45.1 | 0.00 | 0.03 | 0.00 | 97 | 1011.3 |
| 20260505035834 | 5 | 276 | 17.7 | 45.1 | 0.00 | 0.03 | 0.00 | 97 | 1011.2 |
| 20260505035337 | 5 | 273 | 20.9 | 45.1 | 0.00 | 0.03 | 0.00 | 97 | 1011.2 |
| 20260505034839 | 5 | 281 | 19.3 | 45.1 | 0.00 | 0.03 | 0.00 | 97 | 1011.1 |
| 20260505034343 | 5 | 268 | 19.3 | 45.1 | 0.00 | 0.03 | 0.00 | 97 | 1011.1 |
| 20260505033846 | 5 | 253 | 25.7 | 45.1 | 0.00 | 0.03 | 0.00 | 97 | 1011.0 |
| 20260505033348 | 6 | 270 | 17.7 | 38.6 | 0.00 | 0.03 | 0.00 | 97 | 1010.9 |
| 20260505032355 | 6 | 256 | 20.9 | 49.9 | 0.00 | 0.03 | 0.00 | 97 | 1010.8 |
| 20260505031857 | 6 | 265 | 33.8 | 51.5 | 0.00 | 0.03 | 0.00 | 96 | 1010.7 |
| 20260505031400 | 6 | 253 | 25.7 | 45.1 | 0.00 | 0.03 | 0.00 | 96 | 1010.6 |
| 20260505030903 | 6 | 266 | 20.9 | 32.2 | 0.00 | 0.03 | 0.00 | 96 | 1010.8 |
| 20260505030406 | 6 | 264 | 16.1 | 37.0 | 0.00 | 0.03 | 0.00 | 96 | 1010.7 |
| 20260505025909 | 6 | 261 | 20.9 | 38.6 | 0.00 | 0.03 | 0.00 | 96 | 1010.7 |
| 20260505025412 | 6 | 281 | 20.9 | 45.1 | 0.00 | 0.03 | 0.00 | 95 | 1010.6 |
| 20260505024915 | 6 | 278 | 17.7 | 45.1 | 0.00 | 0.03 | 0.00 | 95 | 1010.5 |
| 20260505024418 | 6 | 276 | 17.7 | 45.1 | 0.00 | 0.03 | 0.00 | 94 | 1010.6 |
| 20260505023922 | 6 | 278 | 25.7 | 45.1 | 0.00 | 0.03 | 0.00 | 94 | 1010.4 |
| 20260505023424 | 6 | 267 | 19.3 | 43.5 | 0.00 | 0.03 | 0.00 | 94 | 1010.5 |
| 20260505022927 | 6 | 278 | 25.7 | 43.5 | 0.00 | 0.03 | 0.00 | 93 | 1010.2 |
| 20260505022431 | 6 | 256 | 20.9 | 51.5 | 0.00 | 0.03 | 0.00 | 93 | 1010.6 |
| 20260505021933 | 6 | 255 | 27.4 | 53.1 | 0.00 | 0.03 | 0.00 | 93 | 1010.5 |
| 20260505021437 | 6 | 255 | 38.6 | 53.1 | 0.00 | 0.03 | 0.00 | 92 | 1010.4 |
| 20260505020940 | 6 | 259 | 20.9 | 40.2 | 0.00 | 0.03 | 0.00 | 91 | 1010.5 |
| 20260505020443 | 6 | 265 | 22.5 | 46.7 | 0.00 | 0.03 | 0.00 | 91 | 1010.4 |
| 20260505015946 | 6 | 262 | 22.5 | 46.7 | 0.00 | 0.03 | 0.00 | 91 | 1010.2 |
| 20260505015449 | 6 | 253 | 27.4 | 38.6 | 0.00 | 0.03 | 0.00 | 90 | 1010.2 |
| 20260505014952 | 7 | 260 | 24.1 | 35.4 | 0.00 | 0.03 | 0.00 | 89 | 1010.4 |
| 20260505014455 | 7 | 268 | 22.5 | 48.3 | 0.00 | 0.03 | 0.00 | 89 | 1010.4 |
| 20260505013958 | 7 | 268 | 27.4 | 46.7 | 0.00 | 0.03 | 0.00 | 89 | 1010.5 |
| 20260505013004 | 7 | 273 | 29.0 | 43.5 | 0.00 | 0.03 | 0.00 | 88 | 1010.5 |
| 20260505012506 | 7 | 277 | 30.6 | 48.3 | 0.00 | 0.03 | 0.00 | 87 | 1010.4 |
| 20260505012009 | 7 | 280 | 24.1 | 49.9 | 0.00 | 0.03 | 0.00 | 86 | 1010.5 |
| 20260505011512 | 7 | 288 | 30.6 | 49.9 | 0.00 | 0.03 | 0.00 | 86 | 1010.4 |
| 20260505011046 | 8 | 287 | 32.2 | 48.3 | 0.00 | 0.03 | 0.00 | 85 | 1010.5 |
| 20260505011015 | 8 | 287 | 32.2 | 48.3 | 0.00 | 0.03 | 0.00 | 85 | 1010.5 |
| 20260505010518 | 8 | 277 | 25.7 | 45.1 | 0.00 | 0.03 | 0.00 | 85 | 1010.5 |
| 20260505010021 | 8 | 283 | 27.4 | 43.5 | 0.00 | 0.03 | 0.00 | 84 | 1010.7 |
| 20260505005524 | 8 | 280 | 25.7 | 48.3 | 0.00 | 0.03 | 0.00 | 84 | 1010.8 |
| 20260505005027 | 8 | 286 | 29.0 | 48.3 | 0.00 | 0.03 | 0.00 | 83 | 1010.7 |
| 20260505004629 | 8 | 285 | 29.0 | 51.5 | 0.00 | 0.03 | 0.00 | 82 | 1010.6 |
| 20260505004530 | 8 | 285 | 29.0 | 51.5 | 0.00 | 0.03 | 0.00 | 82 | 1010.6 |
| 20260505004108 | 8 | 286 | 29.0 | 59.5 | 0.00 | 0.03 | 0.00 | 83 | 1010.6 |
| 20260505004033 | 8 | 286 | 29.0 | 59.5 | 0.00 | 0.03 | 0.00 | 83 | 1010.6 |
| 20260505003630 | 8 | 258 | 43.5 | 59.5 | 0.00 | 0.03 | 0.00 | 82 | 1010.6 |
| 20260505003537 | 8 | 258 | 43.5 | 59.5 | 0.00 | 0.03 | 0.00 | 82 | 1010.6 |
| 20260505003040 | 8 | 265 | 29.0 | 51.5 | 0.00 | 0.03 | 0.00 | 82 | 1010.7 |
| 20260505002543 | 9 | 265 | 30.6 | 48.3 | 0.00 | 0.03 | 0.00 | 81 | 1011.0 |
| 20260505002046 | 9 | 253 | 20.9 | 51.5 | 0.00 | 0.03 | 0.00 | 81 | 1011.0 |
| 20260505001051 | 8 | 254 | 32.2 | 51.5 | 0.00 | 0.03 | 0.00 | 82 | 1010.8 |
| 20260505000555 | 8 | 271 | 20.9 | 48.3 | 0.00 | 0.03 | 0.00 | 82 | 1010.8 |
| 20260505000058 | 9 | 265 | 30.6 | 48.3 | 0.00 | 0.03 | 0.00 | 80 | 1010.8 |
| 20260504235713 | 9 | 264 | 22.5 | 49.9 | 0.00 | 0.03 | 0.00 | 80 | 1010.8 |
| 20260504235601 | 9 | 264 | 22.5 | 49.9 | 0.00 | 0.03 | 0.00 | 80 | 1010.8 |
| 20260504235104 | 9 | 252 | 37.0 | 49.9 | 0.00 | 0.03 | 0.00 | 80 | 1010.8 |
| 20260504234738 | 9 | 257 | 29.0 | 51.5 | 0.00 | 0.03 | 0.00 | 79 | 1010.7 |
| 20260504234607 | 9 | 257 | 29.0 | 51.5 | 0.00 | 0.03 | 0.00 | 79 | 1010.7 |
| 20260504234225 | 9 | 251 | 32.2 | 54.7 | 0.00 | 0.03 | 0.00 | 79 | 1010.9 |
| 20260504234109 | 9 | 251 | 32.2 | 54.7 | 0.00 | 0.03 | 0.00 | 79 | 1010.9 |
| 20260504233613 | 9 | 246 | 37.0 | 54.7 | 0.00 | 0.03 | 0.00 | 78 | 1010.8 |
| 20260504233116 | 9 | 251 | 30.6 | 48.3 | 0.00 | 0.03 | 0.00 | 78 | 1010.9 |
| 20260504232738 | 9 | 275 | 22.5 | 48.3 | 0.00 | 0.03 | 0.00 | 78 | 1010.8 |
| 20260504232619 | 9 | 275 | 22.5 | 48.3 | 0.00 | 0.03 | 0.00 | 78 | 1010.8 |
| 20260504232122 | 9 | 258 | 25.7 | 45.1 | 0.00 | 0.03 | 0.00 | 77 | 1010.7 |
| 20260504231128 | 10 | 280 | 24.1 | 41.8 | 0.00 | 0.03 | 0.00 | 76 | 1010.9 |
| 20260504230734 | 10 | 265 | 17.7 | 48.3 | 0.00 | 0.03 | 0.00 | 78 | 1011.0 |
| 20260504230631 | 10 | 265 | 17.7 | 48.3 | 0.00 | 0.03 | 0.00 | 78 | 1011.0 |
| 20260504225739 | 10 | 247 | 27.4 | 46.7 | 0.00 | 0.03 | 0.00 | 75 | 1010.9 |
| 20260504225637 | 10 | 247 | 27.4 | 46.7 | 0.00 | 0.03 | 0.00 | 75 | 1010.9 |
| 20260504225140 | 10 | 274 | 25.7 | 43.5 | 0.00 | 0.03 | 0.00 | 76 | 1010.9 |
| 20260504224643 | 10 | 263 | 24.1 | 46.7 | 0.00 | 0.03 | 0.00 | 77 | 1011.0 |
| 20260504224222 | 4 | 262 | 22.5 | 49.9 | 0.00 | 0.03 | 0.00 | 75 | 1011.0 |
| 20260504224146 | -17 | 262 | 22.5 | 49.9 | 0.00 | 0.03 | 0.00 | 75 | 1011.0 |
| 20260504223649 | 10 | 269 | 29.0 | 49.9 | 0.00 | 0.03 | 0.00 | 73 | 1010.8 |
| 20260504222655 | 10 | 282 | 29.0 | 43.5 | 0.00 | 0.03 | 0.00 | 75 | 1011.1 |
| 20260504222158 | 10 | 283 | 29.0 | 49.9 | 0.00 | 0.03 | 0.00 | 73 | 1011.1 |
| 20260504221928 | 10 | 254 | 32.2 | 49.9 | 0.00 | 0.03 | 0.00 | 73 | 1011.2 |
| 20260504221701 | 10 | 254 | 32.2 | 49.9 | 0.00 | 0.03 | 0.00 | 73 | 1011.2 |
| 20260504221204 | 10 | 279 | 27.4 | 49.9 | 0.00 | 0.03 | 0.00 | 76 | 1011.1 |
| 20260504220707 | 10 | 283 | 27.4 | 49.9 | 0.00 | 0.03 | 0.00 | 76 | 1011.2 |
| 20260504220348 | 10 | 274 | 27.4 | 49.9 | 0.00 | 0.03 | 0.00 | 75 | 1011.2 |
| 20260504220210 | 10 | 274 | 27.4 | 49.9 | 0.00 | 0.03 | 0.00 | 75 | 1011.2 |
| 20260504215712 | 10 | 247 | 35.4 | 53.1 | 0.00 | 0.03 | 0.00 | 75 | 1011.4 |
| 20260504215344 | 10 | 250 | 40.2 | 53.1 | 0.00 | 0.03 | 0.00 | 74 | 1011.3 |
| 20260504215216 | 10 | 250 | 40.2 | 53.1 | 0.00 | 0.03 | 0.00 | 74 | 1011.3 |
| 20260504214719 | 10 | 265 | 24.1 | 49.9 | 0.00 | 0.03 | 0.00 | 76 | 1011.5 |
| 20260504214222 | 10 | 264 | 22.5 | 51.5 | 0.00 | 0.03 | 0.00 | 77 | 1011.4 |
| 20260504213725 | 10 | 253 | 33.8 | 51.5 | 0.00 | 0.03 | 0.00 | 77 | 1011.5 |
| 20260504213342 | 10 | 257 | 29.0 | 48.3 | 0.00 | 0.03 | 0.00 | 77 | 1011.6 |
| 20260504213228 | 10 | 257 | 29.0 | 48.3 | 0.00 | 0.03 | 0.00 | 77 | 1011.6 |
| 20260504212730 | 10 | 269 | 22.5 | 43.5 | 0.00 | 0.03 | 0.00 | 79 | 1011.8 |
| 20260504212234 | 10 | 282 | 24.1 | 41.8 | 0.00 | 0.03 | 0.00 | 81 | 1011.7 |
| 20260504211737 | 9 | 269 | 19.3 | 41.8 | 0.00 | 0.03 | 0.00 | 81 | 1011.9 |
| 20260504211239 | 10 | 280 | 20.9 | 41.8 | 0.00 | 0.03 | 0.00 | 80 | 1011.9 |
| 20260504210245 | 10 | 277 | 22.5 | 37.0 | 0.00 | 0.03 | 0.00 | 81 | 1012.0 |
| 20260504205820 | 10 | 264 | 17.7 | 46.7 | 0.00 | 0.03 | 0.00 | 83 | 1012.0 |
| 20260504205749 | 10 | 264 | 17.7 | 46.7 | 0.00 | 0.03 | 0.00 | 83 | 1012.0 |
| 20260504204754 | 9 | 286 | 24.1 | 41.8 | 0.00 | 0.03 | 0.00 | 85 | 1011.8 |
| 20260504204257 | 9 | 275 | 25.7 | 46.7 | 0.00 | 0.03 | 0.00 | 84 | 1011.7 |
| 20260504203801 | 10 | 282 | 29.0 | 46.7 | 0.00 | 0.03 | 0.00 | 82 | 1012.0 |
| 20260504203303 | 10 | 277 | 22.5 | 45.1 | 0.00 | 0.03 | 0.00 | 84 | 1011.9 |
| 20260504202859 | 9 | 269 | 22.5 | 41.8 | 0.00 | 0.03 | 0.00 | 85 | 1011.9 |
| 20260504202806 | 9 | 269 | 22.5 | 41.8 | 0.00 | 0.03 | 0.00 | 85 | 1011.9 |
| 20260504202310 | 9 | 258 | 25.7 | 41.8 | 0.00 | 0.03 | 0.00 | 85 | 1012.0 |
| 20260504201813 | 9 | 266 | 27.4 | 40.2 | 0.00 | 0.03 | 0.00 | 85 | 1012.0 |
| 20260504201453 | 8 | 289 | 22.5 | 38.6 | 0.00 | 0.03 | 0.00 | 88 | 1012.0 |
| 20260504201351 | 8 | 289 | 22.5 | 38.6 | 0.00 | 0.03 | 0.00 | 88 | 1012.0 |
| 20260504201316 | 8 | 289 | 22.5 | 38.6 | 0.00 | 0.03 | 0.00 | 88 | 1012.0 |
| 20260504200914 | 8 | 290 | 17.7 | 33.8 | 0.00 | 0.03 | 0.00 | 90 | 1012.0 |
| 20260504200819 | 8 | 290 | 17.7 | 33.8 | 0.00 | 0.03 | 0.00 | 90 | 1012.0 |
| 20260504195825 | 8 | 267 | 19.3 | 30.6 | 0.00 | 0.03 | 0.00 | 91 | 1012.1 |
| 20260504195328 | 8 | 276 | 19.3 | 33.8 | 0.00 | 0.03 | 0.00 | 92 | 1012.1 |
| 20260504194831 | 7 | 275 | 22.5 | 38.6 | 0.00 | 0.03 | 0.00 | 92 | 1012.1 |
| 20260504194334 | 7 | 272 | 25.7 | 38.6 | 0.00 | 0.03 | 0.00 | 92 | 1012.1 |
| 20260504193837 | 7 | 252 | 20.9 | 32.2 | 0.00 | 0.03 | 0.00 | 93 | 1012.1 |
| 20260504193340 | 7 | 276 | 17.7 | 35.4 | 0.00 | 0.03 | 0.00 | 94 | 1012.3 |
| 20260504192843 | 7 | 262 | 20.9 | 35.4 | 0.00 | 0.03 | 0.00 | 94 | 1012.0 |
| 20260504192346 | 7 | 286 | 19.3 | 33.8 | 0.00 | 0.03 | 0.00 | 94 | 1011.8 |
| 20260504191849 | 7 | 275 | 12.9 | 40.2 | 0.00 | 0.03 | 0.00 | 94 | 1012.1 |
| 20260504191352 | 7 | 272 | 16.1 | 46.7 | 0.00 | 0.03 | 0.00 | 94 | 1012.1 |
| 20260504190943 | 7 | 262 | 33.8 | 46.7 | 0.00 | 0.03 | 0.00 | 94 | 1012.1 |
| 20260504190855 | 7 | 262 | 33.8 | 46.7 | 0.00 | 0.03 | 0.00 | 94 | 1012.1 |
| 20260504190358 | 7 | 263 | 32.2 | 43.5 | 0.00 | 0.03 | 0.00 | 94 | 1012.1 |
| 20260504185901 | 7 | 261 | 27.4 | 41.8 | 0.00 | 0.03 | 0.00 | 94 | 1012.3 |
| 20260504185404 | 7 | 270 | 16.1 | 43.5 | 0.00 | 0.03 | 0.00 | 94 | 1012.3 |
| 20260504184907 | 7 | 269 | 29.0 | 43.5 | 0.00 | 0.03 | 0.00 | 94 | 1012.3 |
| 20260504184552 | 7 | 262 | 30.6 | 45.1 | 0.00 | 0.03 | 0.00 | 95 | 1013.0 |
| 20260504184410 | 7 | 262 | 30.6 | 45.1 | 0.00 | 0.03 | 0.00 | 95 | 1013.0 |
| 20260504183913 | 7 | 256 | 19.3 | 45.1 | 0.00 | 0.03 | 0.00 | 96 | 1013.0 |
| 20260504183416 | 7 | 267 | 30.6 | 45.1 | 0.00 | 0.03 | 0.00 | 96 | 1013.0 |
| 20260504182919 | 6 | 269 | 33.8 | 43.5 | 0.00 | 0.03 | 0.00 | 97 | 1013.0 |
| 20260504182422 | 6 | 274 | 25.7 | 46.7 | 0.00 | 0.03 | 0.00 | 97 | 1013.0 |
| 20260504181925 | 6 | 275 | 29.0 | 46.7 | 0.00 | 0.03 | 0.00 | 97 | 1012.8 |
| 20260504181428 | 6 | 272 | 29.0 | 45.1 | 0.00 | 0.03 | 0.00 | 97 | 1012.9 |
| 20260504180931 | 6 | 263 | 29.0 | 45.1 | 0.00 | 0.03 | 0.00 | 97 | 1012.8 |
| 20260504180434 | 6 | 268 | 25.7 | 43.5 | 0.00 | 0.03 | 0.00 | 97 | 1012.4 |
| 20260504175937 | 6 | 271 | 27.4 | 48.3 | 0.00 | 0.03 | 0.00 | 97 | 1012.6 |
| 20260504175440 | 6 | 268 | 35.4 | 48.3 | 0.00 | 0.03 | 0.00 | 97 | 1012.4 |
| 20260504174446 | 6 | 265 | 33.8 | 45.1 | 0.00 | 0.03 | 0.00 | 98 | 1012.4 |
| 20260504173949 | 6 | 257 | 30.6 | 43.5 | 0.00 | 0.03 | 0.00 | 98 | 1012.3 |
| 20260504173452 | 6 | 278 | 30.6 | 43.5 | 0.00 | 0.03 | 0.00 | 98 | 1012.2 |
| 20260504173043 | 6 | 264 | 27.4 | 48.3 | 0.00 | 0.03 | 0.00 | 98 | 1012.2 |
| 20260504172955 | 6 | 264 | 27.4 | 48.3 | 0.00 | 0.03 | 0.00 | 98 | 1012.2 |
| 20260504172458 | 6 | 265 | 24.1 | 48.3 | 0.00 | 0.03 | 0.00 | 99 | 1012.0 |
| 20260504172001 | 6 | 260 | 24.1 | 48.3 | 0.00 | 0.03 | 0.00 | 99 | 1012.2 |
| 20260504171618 | 6 | 267 | 25.7 | 45.1 | 0.00 | 0.03 | 0.00 | 99 | 1011.9 |
| 20260504171504 | 6 | 267 | 25.7 | 45.1 | 0.00 | 0.03 | 0.00 | 99 | 1011.9 |
| 20260504170510 | 5 | 273 | 29.0 | 48.3 | 0.00 | 0.03 | 0.00 | 99 | 1011.4 |
| 20260504151119 | 5 | 269 | 27.4 | 51.5 | 0.00 | 0.03 | 0.00 | 100 | 1010.7 |
| 20260504150125 | 5 | 280 | 37.0 | 46.7 | 0.00 | 0.03 | 0.00 | 100 | 1010.6 |
| 20260504141155 | 4 | 276 | 29.0 | 54.7 | 0.00 | 0.03 | 0.03 | 100 | 1010.8 |
| 20260504140658 | 4 | 273 | 38.6 | 54.7 | 0.00 | 0.03 | 0.03 | 100 | 1010.8 |
| 20260504140201 | 4 | 276 | 38.6 | 56.3 | 0.00 | 0.03 | 0.03 | 100 | 1010.4 |
| 20260504130806 | 5 | 273 | 22.5 | 45.1 | 0.00 | 0.03 | 0.03 | 100 | 1009.9 |
| 20260504130734 | 5 | 273 | 22.5 | 45.1 | 0.00 | 0.03 | 0.03 | 100 | 1009.9 |
| 20260504130237 | 5 | 271 | 22.5 | 49.9 | 0.00 | 0.03 | 0.03 | 100 | 1010.0 |
| 20260504120313 | 5 | 265 | 38.6 | 64.4 | 0.03 | 0.03 | 0.03 | 100 | 1009.6 |
| 20260504110349 | 5 | 275 | 41.8 | 62.8 | 0.00 | 0.00 | 0.00 | 99 | 1009.3 |
| 20260504100425 | 6 | 267 | 35.4 | 53.1 | 0.00 | 0.00 | 0.00 | 99 | 1009.5 |
| 20260504081531 | 5 | 266 | 43.5 | 66.0 | 0.00 | 0.00 | 0.00 | 96 | 1010.2 |
| 20260504081034 | 5 | 270 | 43.5 | 66.0 | 0.00 | 0.00 | 0.00 | 97 | 1010.2 |
| 20260504080537 | 5 | 270 | 41.8 | 64.4 | 0.00 | 0.00 | 0.00 | 97 | 1010.3 |
| 20260504070115 | 5 | 278 | 41.8 | 59.5 | 0.00 | 0.00 | 0.00 | 96 | 1010.1 |